Temperature
16 16 16 16 16 16 16 16 16 16 16 16 15 15 15 15 15 15 15 15 15 15 15 15 15 15 15 15 15 15 15 15 15 15 15 15 15 15 14 14 14 14 14
16 16 16 16 15 15 15 15 15 16 16 15 15 15 15 15 15 15 15 15 15 15 15 15 15 15 15 15 15 15 15 15 15 15 15 15 15 14 14 14 14 14 14
15 16 16 15 15 15 15 15 15 15 15 15 15 15 15 15 15 15 15 15 15 15 15 15 15 15 15 15 15 15 15 14 14 14 14 14 14 14 14 14 14 14 14
15 15 15 15 15 15 15 15 15 15 15 15 15 15 15 15 15 15 15 15 15 15 14 15 15 15 15 15 15 15 14 14 14 14 14 14 14 14 14 14 14 14 14
14 15 15 15 15 15 15 15 15 15 15 15 15 15 15 15 15 15 14 14 14 14 14 14 14 15 15 15 14 14 14 14 13 14 14 14 14 14 14 14 14 14 14
14 14 14 14 14 14 15 14 15 14 14 15 14 14 14 14 14 14 14 14 14 14 14 14 14 15 14 14 14 14 14 13 13 13 13 14 14 14 14 14 14 14 14
14 14 14 14 14 14 14 14 14 14 14 14 14 14 14 14 14 14 14 14 14 14 14 14 14 14 14 14 14 14 13 13 13 13 13 13 13 13 13 13 14 14 13
13 13 13 13 13 14 14 14 14 14 14 14 14 14 14 14 14 14 14 14 14 14 14 14 14 14 14 14 14 14 13 13 13 13 13 13 13 13 13 13 13 13 13
12 13 13 13 13 13 13 13 13 13 14 14 14 14 14 14 14 14 14 14 14 14 14 14 14 14 14 14 14 13 13 13 13 13 13 13 13 13 13 13 13 13 13
12 12 13 13 13 13 13 13 13 13 13 13 13 13 13 13 13 13 13 13 13 13 14 14 14 13 13 13 13 13 12 12 12 12 13 13 13 13 13 13 13 13 13
12 12 12 12 12 12 12 12 12 13 13 13 13 13 13 13 13 13 13 13 13 13 13 13 13 13 13 13 13 12 12 12 12 12 12 12 12 12 12 12 13 13 13
11 11 11 11 12 12 12 12 12 12 12 12 12 12 12 12 12 12 12 12 13 13 13 13 13 13 13 12 12 12 12 12 12 12 12 12 12 12 12 12 12 12 12
10 10 10 11 11 11 11 11 12 12 12 12 12 12 12 12 12 12 12 12 12 12 12 12 12 12 12 12 12 12 12 12 12 12 12 12 12 12 12 12 12 12 12
9 9 10 10 10 10 11 11 11 11 11 11 11 11 12 12 12 12 12 12 12 12 12 12 12 12 12 12 12 12 11 12 12 12 12 12 12 12 12 12 12 12 12
8 8 9 9 9 10 10 10 10 11 11 11 11 11 11 11 11 11 11 11 11 11 11 11 11 11 11 11 11 11 11 11 11 11 11 12 12 12 12 12 12 12 11
7 8 8 8 9 9 9 9 10 10 10 10 10 10 11 11 11 11 11 11 11 11 11 11 11 11 11 11 11 11 11 11 11 11 11 11 12 12 12 11 12 11 11
6 7 7 7 8 8 9 9 9 9 10 10 10 10 10 10 10 10 10 11 11 11 11 11 11 11 11 11 11 11 11 11 11 11 11 11 11 11 11 11 11 11 11
6 6 6 7 7 7 8 8 8 9 9 9 9 10 10 10 10 10 10 10 10 10 10 10 10 10 10 10 10 11 11 11 11 11 11 11 11 11 11 11 11 11 11
5 5 6 6 7 7 7 8 8 8 8 9 9 9 9 9 10 10 10 10 10 10 10 10 10 10 10 10 10 10 10 10 10 10 10 10 10 11 11 11 11 11 11
4 5 5 5 6 6 7 7 7 7 8 8 8 9 9 9 9 9 9 9 9 9 9 10 9 10 10 10 10 10 10 10 10 10 10 10 10 10 10 10 10 10 10
4 4 4 5 5 5 6 6 7 7 7 8 8 8 8 9 9 9 9 9 9 9 9 9 9 9 9 9 9 9 9 10 10 10 10 10 10 10 10 10 10 10 10
3 3 4 4 4 4 5 5 6 6 6 7 7 7 8 8 8 8 8 8 8 9 9 9 9 9 9 9 9 9 9 9 9 9 9 10 10 10 10 10 9 9 10
2 2 3 3 4 4 4 4 5 5 6 6 6 7 7 7 7 7 8 8 8 8 8 8 8 8 8 8 8 9 8 9 9 9 9 9 9 9 9 9 9 9 9
1 2 2 2 3 3 3 4 4 4 4 5 6 6 6 7 7 7 7 7 7 7 8 8 8 8 8 8 8 8 9 8 8 8 8 9 9 9 9 9 9 9 9
1 1 1 2 2 2 2 3 3 3 4 4 5 5 6 6 6 6 7 7 7 7 7 7 7 8 8 8 8 8 8 8 8 8 8 8 8 9 9 9 9 9 9
0 0 1 1 1 1 2 2 2 3 3 4 4 4 5 5 5 6 6 6 6 6 7 7 7 7 7 7 7 8 8 8 8 8 8 8 8 8 8 8 9 9 9
Wind_Speed
4 4 5 5 7 9 10 11 11 11 11 12 12 12 12 12 13 13 14 14 14 15 15 15 15 16 16 17 17 17 17 18 18 19 18 18 17 17 17 17 17 17 19
5 6 7 7 8 9 10 10 11 11 11 11 11 12 12 12 12 12 13 13 14 14 14 15 15 15 16 16 16 16 16 16 16 17 17 17 17 17 17 17 17 16 18
6 8 7 8 8 9 10 10 11 11 11 11 11 11 11 11 12 12 12 12 13 13 14 15 15 15 15 15 14 14 13 13 12 14 14 14 15 17 17 17 18 18 17
6 8 8 8 9 10 10 10 10 11 11 11 11 10 11 11 11 12 12 12 12 13 14 14 14 14 14 14 13 12 11 10 10 11 12 13 13 15 16 16 17 17 17
6 7 8 9 9 10 10 10 10 10 10 10 10 10 10 10 11 11 12 12 13 13 14 14 14 14 13 13 11 10 10 9 10 11 13 13 13 14 15 15 15 15 15
6 7 8 9 9 9 9 9 10 10 10 10 10 9 10 10 11 11 12 13 13 13 13 14 14 13 12 11 10 9 8 8 9 12 12 12 12 13 14 14 14 14 14
6 8 8 8 9 9 9 9 9 9 9 9 9 9 9 10 11 11 12 12 13 12 13 13 13 12 11 10 8 8 8 9 10 12 12 12 12 13 13 13 13 13 13
7 8 8 8 8 8 8 8 8 8 8 9 9 9 9 9 10 11 11 12 12 12 12 12 12 11 10 9 7 7 7 8 9 11 12 11 11 12 12 12 12 12 13
9 8 7 7 7 7 7 8 8 8 8 9 9 9 9 9 9 10 10 11 11 11 10 11 11 10 9 8 6 6 7 8 9 10 10 10 11 12 12 12 11 12 12
7 7 8 7 6 5 5 6 7 8 8 8 9 8 9 8 9 9 9 10 10 10 9 10 10 10 8 7 5 5 5 7 9 11 10 10 11 11 11 11 11 11 11
7 6 6 6 6 6 4 5 6 7 7 7 7 8 8 7 7 7 8 9 10 9 9 9 10 9 8 6 4 3 4 6 10 10 9 10 10 10 10 11 11 11 11
5 5 5 6 6 6 4 4 4 5 6 5 5 6 5 6 6 7 8 8 9 9 9 8 8 8 7 5 3 2 2 6 9 9 9 9 9 9 9 10 10 10 10
4 5 5 5 5 5 4 3 2 2 3 4 4 4 5 6 6 6 6 7 7 8 7 6 6 5 5 5 4 2 3 7 8 9 8 8 8 8 8 8 9 9 9
4 4 5 6 5 4 4 2 2 2 1 1 3 4 4 3 4 4 4 5 5 5 5 4 3 4 4 5 4 3 5 6 8 9 8 7 7 8 7 7 7 8 8
4 4 4 5 5 4 3 3 2 1 1 0 2 3 3 3 3 3 3 4 4 5 4 3 2 2 3 4 3 5 4 5 7 9 8 8 7 7 6 6 6 7 7
5 4 4 4 5 4 4 3 3 2 1 1 1 2 3 3 3 3 2 3 3 4 4 3 2 2 3 3 3 4 4 5 7 8 8 7 7 6 5 5 5 5 6
5 5 4 4 5 4 4 3 3 2 1 1 0 2 3 3 3 2 2 2 3 4 4 3 2 3 2 2 2 3 4 5 6 7 7 7 6 6 5 4 4 4 5
5 5 4 5 5 4 4 3 3 2 2 1 0 1 2 3 3 2 2 2 3 4 3 2 2 2 2 2 1 2 2 3 4 5 5 6 6 5 5 5 4 4 4
6 5 5 4 4 4 5 4 3 2 2 2 1 0 1 2 3 2 2 2 4 3 2 2 2 2 2 2 1 1 2 2 2 3 4 4 5 6 6 5 5 4 4
7 6 5 5 6 5 4 3 3 2 3 2 2 2 1 1 2 2 2 3 3 2 2 2 2 2 2 2 2 1 1 1 1 2 2 4 5 5 5 5 5 4 5
8 8 7 6 6 4 3 2 2 2 2 2 1 1 1 1 2 2 2 3 3 3 3 3 2 3 2 2 2 1 1 0 1 1 2 3 3 4 5 5 5 5 5
8 8 7 6 5 5 3 3 2 2 1 2 2 2 2 2 2 3 2 3 3 3 4 4 3 3 2 3 3 2 1 0 1 1 1 2 2 4 4 5 5 5 5
7 8 7 7 6 5 5 3 3 2 2 2 2 1 2 2 2 2 2 3 3 3 4 4 5 4 4 3 3 2 2 2 1 1 2 2 2 2 3 4 5 5 5
6 6 6 6 5 5 5 3 2 3 3 3 2 1 2 2 2 2 2 3 3 3 3 4 4 4 5 5 3 2 2 2 2 1 2 2 3 3 3 4 5 5 5
5 5 5 6 5 5 5 4 3 3 3 2 2 1 1 2 2 2 2 3 4 3 4 4 3 4 4 4 4 3 2 1 2 2 2 3 2 3 3 3 5 6 6
5 5 6 6 6 6 5 5 4 3 3 3 3 2 1 1 1 2 2 2 3 3 4 4 4 5 4 4 3 3 3 3 3 2 2 3 3 3 3 3 4 6 8
Wind_Direction
88 102 122 108 114 120 119 120 119 116 115 114 111 107 103 99 99 98 97 96 93 91 91 90 88 85 84 83 83 83 82 81 80 77 75 75 75 75 74 74 75 73 76
110 121 119 106 111 116 116 117 119 117 117 118 115 111 107 104 102 102 102 101 99 96 95 93 90 88 87 87 87 87 88 88 88 83 78 75 74 75 75 73 76 77 77
95 114 120 99 104 110 111 113 114 115 116 116 115 114 111 108 107 106 104 104 103 100 98 94 92 90 87 86 88 89 89 90 91 88 83 79 78 78 78 77 77 78 78
88 111 122 106 99 101 106 111 113 112 113 114 114 113 113 112 110 107 107 106 104 104 101 97 94 93 90 88 87 87 86 84 84 84 80 79 80 82 81 79 79 78 78
82 103 119 111 104 101 101 106 112 112 112 111 111 112 113 113 111 109 109 106 105 103 101 99 97 94 91 89 87 83 79 76 75 81 79 78 79 84 82 80 80 80 79
76 88 111 113 109 104 101 105 108 113 113 113 112 110 110 111 111 109 109 108 106 104 103 102 100 96 93 90 84 77 72 67 73 83 81 79 82 86 84 82 82 81 82
74 79 97 106 113 110 106 108 111 111 114 113 113 111 111 110 113 111 107 108 109 108 108 107 103 99 96 91 83 70 61 65 80 82 81 80 85 90 87 85 85 85 84
62 70 85 86 93 110 114 114 113 111 111 114 110 110 111 112 114 116 112 109 109 113 113 112 108 104 98 93 82 64 54 61 81 87 85 85 89 92 89 87 87 88 86
59 58 60 68 81 87 106 115 112 110 108 108 109 105 105 108 114 114 117 114 112 112 117 117 114 110 104 95 81 62 54 64 73 86 89 89 93 94 90 86 90 91 90
59 54 49 50 54 70 89 106 113 113 109 106 107 107 108 111 113 116 115 117 116 113 116 123 118 114 109 101 85 63 51 67 79 79 86 94 97 97 94 90 91 92 93
51 49 43 38 39 38 69 96 108 116 114 112 113 113 115 113 112 117 120 121 121 118 119 126 126 120 115 108 93 68 61 80 84 83 85 100 103 101 98 95 92 92 94
42 38 37 32 33 34 45 91 102 128 133 131 132 128 128 118 114 114 122 125 124 123 123 126 131 132 127 123 109 83 75 94 93 89 91 100 105 106 105 101 97 94 95
46 34 26 23 32 31 29 47 83 112 141 150 152 141 120 119 118 114 118 124 128 128 128 135 132 134 134 128 124 112 68 86 94 93 93 96 106 110 108 107 102 99 98
38 28 24 17 23 28 26 24 60 60 79 134 165 141 120 109 111 119 126 136 136 135 135 140 145 155 136 129 139 121 83 83 99 101 99 97 103 111 111 111 110 111 107
32 21 16 18 17 18 19 16 32 53 57 175 159 150 133 108 124 123 133 138 136 139 133 137 146 130 106 117 133 110 99 94 101 105 108 109 109 112 114 116 114 119 121
18 15 10 13 17 13 7 1 2 18 37 112 160 164 150 129 111 130 133 137 139 143 146 154 138 106 96 98 101 109 109 102 103 109 114 114 116 116 115 123 124 123 124
6 10 12 5 12 8 2 354 355 355 5 43 153 177 157 138 125 119 141 149 139 151 148 140 125 107 100 95 90 92 94 104 113 119 126 128 124 120 120 128 135 141 139
8 6 7 3 1 2 360 349 347 356 358 358 85 170 164 161 156 136 152 160 144 142 131 134 130 122 117 107 96 81 84 96 104 123 130 136 137 134 132 133 136 143 150
9 7 6 2 1 1 358 345 349 359 1 356 18 54 190 178 173 151 164 157 152 140 137 160 147 145 134 117 106 90 76 85 113 124 124 130 134 137 142 151 154 157 162
10 11 13 8 5 2 0 349 352 352 358 359 13 12 329 223 197 176 161 160 156 159 165 166 152 133 133 131 105 75 78 113 129 135 140 132 137 147 152 158 159 165 173
14 12 12 11 6 5 357 350 329 314 319 325 331 356 346 275 223 206 186 180 177 182 184 178 157 144 142 123 100 79 24 303 159 147 142 140 148 154 154 163 168 169 175
15 8 6 9 360 356 346 331 303 303 288 307 320 325 325 317 264 215 198 195 197 187 185 177 165 165 171 155 143 136 153 243 278 208 178 168 168 163 166 176 173 174 174
13 6 358 360 355 353 350 349 341 329 318 315 304 292 310 302 277 242 219 211 208 198 194 187 179 179 183 189 176 162 162 199 206 228 214 197 188 178 181 182 182 186 184
4 359 358 355 355 352 354 355 332 301 299 295 277 263 290 296 289 276 229 219 210 205 202 203 191 185 180 187 202 213 189 156 168 203 233 219 206 203 199 199 194 192 195
4 356 352 355 355 352 353 349 324 308 301 311 313 297 294 296 296 283 261 227 213 208 206 204 205 196 191 194 198 201 209 203 199 184 219 215 222 223 206 206 199 195 200
5 357 355 356 353 353 349 341 331 321 322 331 322 309 305 285 294 296 283 263 239 218 211 207 208 209 208 206 209 201 193 191 199 196 210 206 218 231 218 210 210 205 204
Height
1521 1522 1524 1525 1527 1529 1530 1531 1533 1534 1535 1537 1538 1539 1540 1541 1542 1542 1543 1544 1545 1545 1546 1547 1547 1548 1549 1550 1550 1551 1552 1552 1553 1553 1553 1553 1554 1554 1554 1555 1555 1555 1555
1521 1522 1524 1526 1528 1529 1531 1532 1534 1535 1537 1538 1539 1540 1541 1542 1543 1544 1545 1545 1546 1547 1548 1548 1549 1550 1551 1551 1552 1553 1554 1554 1555 1555 1555 1555 1556 1556 1557 1557 1557 1557 1558
1521 1522 1524 1526 1528 1530 1532 1533 1534 1536 1537 1539 1540 1541 1542 1543 1544 1545 1546 1547 1548 1548 1549 1550 1551 1551 1552 1553 1554 1555 1556 1556 1557 1557 1557 1557 1558 1558 1559 1559 1559 1559 1560
1522 1523 1525 1527 1529 1530 1532 1534 1535 1537 1538 1539 1541 1542 1543 1544 1546 1546 1547 1548 1549 1550 1551 1551 1552 1553 1554 1555 1556 1557 1557 1558 1559 1559 1559 1559 1560 1560 1560 1561 1561 1561 1562
1523 1524 1525 1527 1529 1531 1532 1534 1536 1537 1539 1540 1542 1543 1544 1545 1546 1547 1548 1549 1550 1551 1552 1553 1554 1555 1555 1556 1557 1558 1559 1560 1560 1561 1561 1561 1561 1562 1562 1562 1563 1563 1563
1523 1525 1526 1528 1529 1531 1533 1535 1536 1538 1539 1541 1542 1544 1545 1546 1547 1548 1549 1550 1551 1552 1553 1554 1555 1556 1557 1558 1559 1560 1561 1561 1562 1562 1562 1563 1563 1563 1564 1564 1564 1564 1565
1524 1525 1526 1528 1530 1532 1533 1535 1537 1538 1540 1541 1543 1544 1546 1547 1548 1549 1550 1551 1552 1553 1554 1555 1556 1557 1558 1559 1560 1561 1562 1563 1563 1563 1564 1564 1565 1565 1565 1565 1566 1566 1566
1524 1525 1527 1528 1530 1532 1534 1536 1537 1539 1540 1541 1543 1544 1546 1547 1549 1550 1551 1552 1553 1554 1555 1556 1557 1558 1559 1560 1561 1563 1563 1564 1564 1565 1565 1565 1566 1566 1566 1567 1567 1567 1568
1525 1525 1527 1529 1530 1532 1534 1536 1537 1539 1540 1542 1543 1544 1546 1547 1549 1550 1551 1552 1553 1554 1556 1557 1558 1559 1560 1561 1562 1563 1564 1565 1565 1566 1566 1566 1567 1567 1568 1568 1568 1569 1569
1525 1525 1526 1528 1530 1532 1534 1535 1537 1539 1540 1542 1543 1545 1546 1548 1549 1550 1551 1552 1554 1555 1556 1557 1558 1560 1561 1562 1563 1564 1565 1566 1566 1566 1567 1567 1568 1568 1569 1569 1569 1570 1570
1524 1525 1526 1527 1529 1531 1533 1535 1536 1538 1540 1541 1543 1544 1546 1547 1548 1550 1551 1552 1554 1555 1556 1557 1559 1560 1561 1562 1563 1564 1565 1566 1566 1567 1567 1568 1569 1569 1569 1570 1570 1571 1571
1523 1524 1526 1527 1528 1530 1531 1534 1535 1537 1539 1540 1542 1544 1545 1547 1548 1549 1550 1552 1553 1555 1556 1557 1558 1560 1561 1562 1564 1565 1565 1566 1567 1567 1568 1569 1569 1570 1570 1571 1571 1571 1572
1523 1524 1525 1526 1527 1528 1530 1532 1534 1536 1538 1539 1541 1543 1544 1546 1547 1548 1549 1550 1552 1554 1555 1557 1558 1559 1561 1562 1563 1564 1565 1566 1567 1567 1568 1569 1569 1570 1570 1571 1571 1572 1573
1523 1523 1524 1525 1526 1527 1529 1530 1532 1534 1536 1538 1540 1541 1543 1544 1545 1547 1548 1549 1551 1553 1555 1556 1557 1559 1560 1562 1563 1564 1565 1566 1566 1567 1568 1569 1569 1570 1571 1571 1572 1572 1573
1522 1522 1523 1523 1524 1526 1527 1528 1530 1532 1534 1536 1538 1540 1541 1542 1544 1545 1547 1548 1550 1552 1553 1555 1557 1558 1559 1561 1562 1563 1564 1565 1566 1566 1567 1568 1569 1570 1571 1571 1571 1572 1573
1521 1521 1522 1522 1523 1524 1525 1527 1528 1530 1532 1534 1536 1538 1539 1540 1542 1544 1545 1547 1549 1550 1552 1554 1556 1557 1558 1560 1561 1562 1563 1564 1565 1566 1566 1567 1568 1569 1570 1570 1571 1572 1572
1520 1520 1520 1521 1522 1522 1524 1525 1526 1528 1530 1532 1533 1535 1537 1538 1540 1542 1543 1545 1547 1549 1551 1552 1554 1555 1557 1558 1560 1561 1562 1563 1564 1565 1565 1566 1567 1568 1569 1569 1570 1571 1572
1519 1519 1519 1519 1520 1521 1522 1523 1524 1525 1527 1529 1531 1533 1534 1536 1538 1539 1541 1543 1545 1546 1548 1550 1552 1553 1555 1556 1558 1559 1561 1562 1563 1564 1564 1565 1566 1566 1567 1568 1569 1570 1571
1517 1517 1517 1517 1518 1518 1519 1521 1522 1523 1525 1526 1528 1530 1531 1532 1534 1536 1538 1540 1542 1544 1545 1547 1549 1551 1552 1554 1556 1557 1559 1560 1561 1562 1563 1564 1564 1565 1566 1567 1568 1568 1569
1516 1516 1516 1515 1515 1516 1517 1518 1519 1520 1522 1523 1525 1526 1528 1530 1531 1533 1535 1537 1539 1541 1543 1544 1546 1549 1550 1552 1553 1555 1557 1558 1559 1560 1561 1562 1563 1564 1564 1565 1566 1567 1568
1515 1514 1514 1514 1514 1514 1514 1514 1515 1516 1518 1520 1522 1523 1524 1526 1528 1529 1531 1534 1536 1538 1539 1542 1543 1546 1548 1549 1551 1553 1555 1556 1557 1558 1559 1560 1561 1562 1562 1563 1564 1565 1565
1513 1513 1512 1512 1512 1512 1512 1513 1513 1513 1514 1516 1518 1519 1520 1522 1524 1526 1528 1530 1532 1534 1536 1538 1540 1542 1544 1546 1548 1550 1552 1554 1554 1555 1556 1557 1558 1559 1560 1561 1561 1562 1563
1512 1512 1510 1509 1510 1510 1510 1510 1510 1511 1511 1512 1513 1515 1516 1518 1520 1522 1524 1526 1528 1530 1532 1534 1537 1539 1540 1543 1545 1547 1549 1549 1551 1552 1553 1555 1556 1556 1557 1558 1559 1560 1561
1511 1511 1509 1508 1508 1507 1507 1507 1507 1508 1506 1508 1509 1510 1512 1514 1516 1518 1520 1522 1524 1526 1528 1531 1533 1535 1537 1538 1541 1544 1546 1546 1548 1548 1550 1552 1553 1553 1554 1555 1556 1557 1558
1511 1510 1508 1506 1506 1505 1505 1504 1505 1504 1504 1505 1506 1507 1508 1510 1512 1514 1516 1518 1520 1522 1524 1526 1528 1531 1533 1535 1537 1539 1541 1543 1544 1545 1546 1547 1549 1550 1551 1552 1553 1554 1555
1510 1508 1506 1505 1504 1503 1502 1502 1502 1501 1500 1500 1502 1502 1504 1506 1508 1509 1511 1513 1515 1517 1519 1522 1524 1526 1529 1531 1533 1535 1537 1539 1540 1541 1542 1543 1544 1546 1547 1548 1549 1550 1551